UC IPM Online UC ANR home page UC IPM home page

UC IPM Home

SKIP navigation

 

How to Manage Pests

Interactive Tools and Models:
Grape Powdery Mildew Risk Assessment Index

RAI report for FIREBAUGH/ALISO-01.P (FRBA)

Time period: March 7, 2014, to September 29, 2014,
retrieved on October 25, 2014.
Choose year
Graph of RAI for FIREBAUGH/ALISO-01.P

Because estimated data are included in the index, use reported RAI with caution. Interpret RAI using field surveys and your knowledge of the particular vineyard, along with additional weather data if you have it.

Date RAI Disease pressure Pathogen status Hours
70° ≤ Temp ≤ 85°
Hours
Temp > 95°
Notes
03/07/2014 0 n/a no infection 0.0 0.00  
03/08/2014 0 n/a no infection 5.3 0.00  
03/09/2014 0 n/a no infection 3.2 0.00  
03/10/2014 0 n/a no infection .1 0.00  
03/11/2014 0 n/a no infection 0.0 0.00  
03/12/2014 0 n/a no infection 5.9 0.00  
03/13/2014 20 n/a no infection 6.2 0.00  
03/14/2014 40 n/a no infection 6.3 0.00  
03/15/2014 60 n/a no infection 6.0 0.00  
03/16/2014 80 n/a no infection 8.6 0.00  
03/17/2014 70 n/a no infection .6 0.00  
03/18/2014 60 n/a no infection .1 0.00  
03/19/2014 80 n/a no infection 7.0 0.00  
03/20/2014 100 n/a no infection 7.5 0.00  
03/21/2014 100 n/a no infection 7.3 0.00  
03/22/2014 90 n/a no infection 5.4 0.00  
03/23/2014 100 n/a no infection 6.9 0.00  
03/24/2014 100 n/a no infection 8.5 0.00  
03/25/2014 90 n/a no infection 3.9 0.00  
03/26/2014 80 n/a no infection 0.0 0.00  
03/27/2014 70 n/a no infection 0.0 0.00  
03/28/2014 60 n/a no infection 5.3 0.00  
03/29/2014 50 n/a no infection 3.2 0.00  
03/30/2014 40 n/a no infection 0.0 0.00  
03/31/2014 30 n/a no infection 0.0 0.00  
04/01/2014 20 n/a no infection 0.0 0.00  
04/02/2014 10 n/a no infection 0.0 0.00  
04/03/2014 0 n/a no infection 0.0 0.00  
04/04/2014 0 n/a no infection 0.0 0.00  
04/05/2014 0 n/a no infection 0.0 0.00  
04/06/2014 0 n/a no infection 5.8 0.00  
04/07/2014 20 n/a no infection 6.0 0.00  
04/08/2014 10 n/a no infection 3.4 0.00  
04/09/2014 0 n/a no infection 4.2 0.00  
04/10/2014 0 n/a no infection 4.0 0.00  
04/11/2014 0 n/a no infection 4.5 0.00  
04/12/2014 20 n/a no infection 7.7 0.00  
04/13/2014 40 n/a no infection 7.1 0.00  
04/14/2014 30 n/a no infection 3.5 0.00  
04/15/2014 20 n/a no infection 2.6 0.00  
04/16/2014 10 n/a no infection 3.6 0.00  
04/17/2014 0 n/a no infection 4.9 0.00  
04/18/2014 20 n/a no infection 9.7 0.00  
04/19/2014 40 n/a no infection 9.0 0.00  
04/20/2014 60 n/a no infection 9.0 0.00  
04/21/2014 80 n/a no infection 9.4 0.00  
04/22/2014 70 n/a no infection 4.5 0.00  
04/23/2014 90 n/a no infection 6.6 0.00  
04/24/2014 100 n/a no infection 8.4 0.00  
04/25/2014 90 n/a no infection 0.0 0.00  
04/26/2014 80 n/a no infection .3 0.00  
04/27/2014 100 n/a no infection 6.8 0.00  
04/28/2014 100 n/a no infection 8.1 0.00  
04/29/2014 90 n/a no infection 3.3 0.00  
04/30/2014 80 n/a no infection 2.5 .61  
05/01/2014 70 n/a no infection 2.9 2.05  
05/02/2014 60 n/a no infection 2.7 .53  
05/03/2014 80 n/a no infection 6.0 0.00  
05/04/2014 100 n/a no infection 9.0 0.00  
05/05/2014 100 n/a no infection 6.6 0.00  
05/06/2014 90 n/a no infection 5.4 0.00  
05/07/2014 100 n/a no infection 7.5 0.00  
05/08/2014 100 n/a no infection 9.3 0.00  
05/09/2014 100 n/a no infection 9.4 0.00  
05/10/2014 100 n/a no infection 7.7 0.00  
05/11/2014 100 n/a no infection 9.5 0.00  
05/12/2014 100 n/a no infection 9.5 0.00 P
05/13/2014 90 n/a no infection 3.2 0.00 S1
05/14/2014 80 n/a no infection 2.8 1.93  
05/15/2014 70 n/a no infection 3.3 4.19  
05/16/2014 60 n/a no infection 2.5 .75  
05/17/2014 50 n/a no infection 4.3 0.00  
05/18/2014 70 n/a no infection 10.7 0.00  
05/19/2014 90 n/a no infection 8.9 0.00  
05/20/2014 100 n/a no infection 8.6 0.00  
05/21/2014 100 n/a no infection 10.1 0.00  
05/22/2014 90 n/a no infection 5.4 0.00  
05/23/2014 80 n/a no infection 3.6 0.00  
05/24/2014 70 n/a no infection 4.4 0.00  
05/25/2014 60 n/a no infection 3.5 0.00  
05/26/2014 50 n/a no infection 3.7 0.00  
05/27/2014 40 n/a no infection 3.4 0.00  
05/28/2014 60 n/a no infection 10.9 0.00  
05/29/2014 80 n/a no infection 10.2 0.00  
05/30/2014 70 n/a no infection 3.2 0.00  
05/31/2014 90 n/a no infection 10.8 0.00  
06/01/2014 80 n/a no infection 2.5 0.00  
06/02/2014 70 n/a no infection 3.8 0.00  
06/03/2014 90 n/a no infection 11.1 0.00  
06/04/2014 80 n/a no infection 3.3 0.00  
06/05/2014 70 n/a no infection 3.6 0.00  
06/06/2014 60 n/a no infection 4.1 0.00  
06/07/2014 50 n/a no infection 3.4 0.00  
06/08/2014 40 n/a no infection 2.9 3.06  
06/09/2014 30 n/a no infection 3.8 5.30  
06/10/2014 20 n/a no infection 3.4 0.00  
06/11/2014 10 n/a no infection 3.3 0.00  
06/12/2014 30 n/a no infection 12.3 0.00  
06/13/2014 50 n/a no infection 11.7 0.00  
06/14/2014 40 n/a no infection 4.7 0.00  
06/15/2014 60 n/a no infection 11.8 0.00  
06/16/2014 80 n/a no infection 10.8 0.00  
06/17/2014 100 n/a no infection 10.1 0.00  
06/18/2014 90 n/a no infection 4.5 0.00  
06/19/2014 80 n/a no infection 3.1 0.00  
06/20/2014 70 n/a no infection 4.0 0.00  
06/21/2014 60 n/a no infection 4.6 0.00  
06/22/2014 50 n/a no infection 3.2 0.00  
06/23/2014 40 n/a no infection 4.0 0.00  
06/24/2014 30 n/a no infection 4.0 0.00  
06/25/2014 20 n/a no infection 4.2 0.00  
06/26/2014 40 n/a no infection 12.8 0.00  
06/27/2014 30 n/a no infection 5.3 0.00  
06/28/2014 20 n/a no infection 3.7 0.00  
06/29/2014 10 n/a no infection 3.1 0.00  
06/30/2014 0 n/a no infection 4.9 2.18  
07/01/2014 0 n/a no infection 4.9 4.59  
07/02/2014 0 n/a no infection 4.4 0.00  
07/03/2014 0 n/a no infection 4.5 0.00  
07/04/2014 0 n/a no infection 4.6 4.28  
07/05/2014 0 n/a no infection 4.6 0.00  
07/06/2014 0 n/a no infection 4.6 0.00  
07/07/2014 20 n/a no infection 8.5 0.00  
07/08/2014 10 n/a no infection 4.6 3.43  
07/09/2014 0 n/a no infection 4.6 .25  
07/10/2014 0 n/a no infection 4.4 0.00  
07/11/2014 0 n/a no infection 5.0 0.00  
07/12/2014 0 n/a no infection 4.2 0.00  
07/13/2014 0 n/a no infection 4.1 0.00  
07/14/2014 0 n/a no infection 5.5 .28  
07/15/2014 20 n/a no infection 9.6 0.00  
07/16/2014 40 n/a no infection 6.6 0.00  
07/17/2014 30 n/a no infection 4.4 0.00  
07/18/2014 20 n/a no infection 5.3 0.00  
07/19/2014 40 n/a no infection 6.4 0.00  
07/20/2014 60 n/a no infection 9.9 0.00  
07/21/2014 80 n/a no infection 6.5 0.00  
07/22/2014 100 n/a no infection 6.6 0.00  
07/23/2014 100 n/a no infection 13.5 0.00  
07/24/2014 90 n/a no infection 3.7 0.00  
07/25/2014 80 n/a no infection 4.0 2.26  
07/26/2014 70 n/a no infection 4.5 4.30  
07/27/2014 80 n/a no infection 6.7 3.91  
07/28/2014 100 n/a no infection 6.2 .21  
07/29/2014 100 n/a no infection 8.7 3.04  
07/30/2014 100 n/a no infection 10.0 3.54  
07/31/2014 100 n/a no infection 6.1 4.02  
08/01/2014 90 n/a no infection 4.6 5.79  
08/02/2014 100 n/a no infection 6.3 4.44  
08/03/2014 100 n/a no infection 9.3 0.00  
08/04/2014 100 n/a no infection 12.2 0.00  
08/05/2014 90 n/a no infection 5.8 0.00  
08/06/2014 80 n/a no infection 5.8 0.00  
08/07/2014 70 n/a no infection 5.5 0.00  
08/08/2014 60 n/a no infection 5.7 0.00  
08/09/2014 50 n/a no infection 4.5 0.00  
08/10/2014 40 n/a no infection 5.2 0.00  
08/11/2014 30 n/a no infection 5.4 .72  
08/12/2014 50 n/a no infection 6.6 0.00  
08/13/2014 40 n/a no infection 5.8 0.00  
08/14/2014 30 n/a no infection 5.8 .55  
08/15/2014 20 n/a no infection 5.8 .55 P
08/16/2014 M n/a n/a     M
08/17/2014 M n/a n/a     M
08/18/2014 M RAI is being restarted due to previous unsubstituted missing data 5.1 3.71 S1
08/19/2014 M RAI is being restarted due to previous unsubstituted missing data 4.6 0.00 S1
08/20/2014 20 n/a no infection 12.8 0.00  
08/21/2014 0 n/a no infection 4.5 0.00  
08/22/2014 0 n/a no infection 4.8 0.00  
08/23/2014 0 n/a no infection 5.5 0.00  
08/24/2014 0 n/a no infection 4.9 0.00  
08/25/2014 20 n/a no infection 11.9 0.00  
08/26/2014 0 n/a no infection 4.5 0.00  
08/27/2014 0 n/a no infection 3.5 1.09  
08/28/2014 0 n/a no infection 3.6 .26  
08/29/2014 0 n/a no infection 5.9 0.00  
08/30/2014 0 n/a no infection 5.9 0.00  
08/31/2014 0 n/a no infection 4.4 0.00  
09/01/2014 0 n/a no infection 3.3 0.00  
09/02/2014 0 n/a no infection 4.1 1.45  
09/03/2014 0 n/a no infection 3.8 0.00  
09/04/2014 0 n/a no infection 3.5 0.00  
09/05/2014 0 n/a no infection 4.0 0.00  
09/06/2014 0 n/a no infection 4.6 0.00  
09/07/2014 0 n/a no infection 5.7 .01  
09/08/2014 0 n/a no infection 5.7 0.00  
09/09/2014 0 n/a no infection 4.6 0.00  
09/10/2014 0 n/a no infection 2.8 0.00  
09/11/2014 0 n/a no infection 4.3 0.00  
09/12/2014 0 n/a no infection 4.2 0.00  
09/13/2014 0 n/a no infection 5.1 .02  
09/14/2014 0 n/a no infection 5.9 0.00  
09/15/2014 20 n/a no infection 6.5 0.00  
09/16/2014 0 n/a no infection 3.7 0.00  
09/17/2014 0 n/a no infection 3.9 .37  
09/18/2014 20 n/a no infection 7.4 0.00  
09/19/2014 40 n/a no infection 11.8 0.00  
09/20/2014 0 n/a no infection 5.1 0.00  
09/21/2014 20 n/a no infection 12.1 0.00  
09/22/2014 40 n/a no infection 11.3 0.00  
09/23/2014 0 n/a no infection 5.0 0.00  
09/24/2014 0 n/a no infection 4.8 0.00  
09/25/2014 20 n/a no infection 6.1 0.00  
09/26/2014 40 n/a no infection 7.3 0.00  
09/27/2014 60 high reproduces every 5 days 8.3 0.00  
09/28/2014 80 high reproduces every 5 days 7.8 0.00  
09/29/2014 100 high reproduces every 5 days 8.8 0.00  

M = missing data - no substitution values were available
P = missing data substituted with values from previous day
S1 = missing data substituted with values from Madera_North-01.P

Top of page


Statewide IPM Program, Agriculture and Natural Resources, University of California
All contents copyright 2014 The Regents of the University of California. All rights reserved.

For noncommercial purposes only, any Web site may link directly to this page. FOR ALL OTHER USES or more information, read Legal Notices. Unfortunately, we cannot provide individual solutions to specific pest problems. See our Home page, or in the U.S., contact your local Cooperative Extension office for assistance.

Agriculture and Natural Resources, University of California

Accessibility   web template revised: October 25, 2014 Contact webmaster.